Location: �quirre
(50.4736°N, 2.2351°E)
Time: 09:22:37
(UTC+00:00)

SJ 16-02 - Pass Details

Date: 07 August 2020
Orbit: 607 x 616 km, 75.0° (Epoch: 21 September)

Event Time Altitude Azimuth Distance (km) Brightness Sun altitude
Exits shadow 01:25:09 17° 132° (SE) 1,551 3.2 -20.4°
Maximum altitude 01:26:59 22° 99° (E) 1,345 3.2 -20.3°
Drops below altitude 10° 01:30:23 10° 48° (NE) 1,981 4.9 -20.1°
Sets 01:33:01 0° 33° (NNE) 2,890 6.3 -19.9°
